FW6176 Weather Reports


time (UTC)temp
F
wind
direction
speed
knots
gust
knots
rain 1hr
in
rain 24hr
in
rain mn
in
humidity
%
barometer
mb
20260906140022 77 89 1.7 7.0 0.00 0.00 0.00 76 1015.2
20260906134517 78 13 0.9 5.2 0.00 0.00 0.00 77 1015.2
20260906133017 77 90 0.0 3.5 0.00 0.00 0.00 77 1015.0
20260906131515 76 319 0.0 1.7 0.00 0.00 0.00 80 1015.0
20260906130014 76 8 0.0 5.2 0.00 0.00 0.00 81 1015.0
20260906124511 75 28 1.7 7.0 0.00 0.00 0.00 81 1014.8
20260906123017 75 70 0.9 3.5 0.00 0.00 0.00 81 1014.6
20260906121511 75 141 0.0 2.6 0.00 0.00 0.00 81 1014.5
20260906120009 75 34 0.0 1.7 0.00 0.00 0.00 82 1014.4
20260906114522 75 34 0.0 1.7 0.00 0.00 0.00 81 1014.2
20260906113006 75 60 0.0 1.7 0.00 0.00 0.00 81 1013.9
20260906111503 75 29 0.0 3.5 0.00 0.00 0.00 81 1013.9
20260906110003 76 25 0.0 2.6 0.00 0.00 0.00 81 1013.6
20260906104559 76 67 0.0 3.5 0.00 0.00 0.00 80 1013.6
20260906103058 76 105 0.0 5.2 0.00 0.00 0.00 80 1013.5
20260906101602 77 29 0.0 2.6 0.00 0.00 0.00 79 1013.5
20260906100054 77 38 0.0 2.6 0.00 0.00 0.00 79 1013.3
20260906094554 78 53 0.0 2.6 0.00 0.00 0.00 80 1013.2
20260906093050 78 1 0.0 2.6 0.00 0.00 0.00 79 1013.0
20260906091551 79 98 0.0 2.6 0.00 0.00 0.00 79 1012.9
20260906090047 79 100 0.0 3.5 0.00 0.00 0.00 78 1013.0
20260906084645 79 353 0.0 3.5 0.00 0.00 0.00 78 1012.9
20260906083043 80 43 0.9 4.3 0.00 0.00 0.00 78 1012.7
20260906081543 80 120 0.0 3.5 0.00 0.00 0.00 78 1012.7
20260906080039 81 339 1.7 6.1 0.00 0.00 0.00 78 1012.8
20260906074543 81 59 1.7 4.3 0.00 0.00 0.00 78 1012.7
20260906073042 81 28 0.0 3.5 0.00 0.00 0.00 78 1012.8
20260906071534 82 26 0.0 4.3 0.00 0.00 0.00 78 1012.7
20260906070033 82 72 0.0 3.5 0.00 0.00 0.00 77 1012.6
20260906064531 83 38 0.0 2.6 0.00 0.00 0.00 77 1012.7
20260906063030 83 79 0.9 4.3 0.00 0.00 0.00 76 1012.7
20260906061528 84 91 0.0 5.2 0.00 0.00 0.00 75 1012.6
20260906060024 85 93 0.9 6.1 0.00 0.00 0.00 74 1012.8
20260906054524 85 66 0.0 2.6 0.00 0.00 0.00 73 1012.8
20260906053027 86 138 0.0 0.9 0.00 0.00 0.00 72 1012.8
20260906051519 86 69 0.0 2.6 0.00 0.00 0.00 71 1012.7
20260906050017 87 23 0.9 4.3 0.00 0.00 0.00 70 1012.5
20260906044515 87 123 0.0 4.3 0.00 0.00 0.00 69 1012.4
20260906043015 88 110 0.0 3.5 0.00 0.00 0.00 68 1012.3
20260906041525 88 20 0.9 3.5 0.00 0.00 0.00 67 1012.2
20260906040025 89 37 0.0 2.6 0.00 0.00 0.00 66 1012.2
20260906034513 89 8 0.0 2.6 0.00 0.00 0.00 65 1012.0
20260906033013 89 25 0.0 2.6 0.00 0.00 0.00 64 1012.0
20260906031519 90 61 0.0 3.5 0.00 0.00 0.00 63 1011.7
20260906030011 90 17 0.0 5.2 0.00 0.00 0.00 61 1011.8
20260906024510 90 94 0.0 3.5 0.00 0.00 0.00 58 1011.6
20260906023009 91 348 0.9 4.3 0.00 0.00 0.00 57 1011.4
20260906021510 91 23 0.9 3.5 0.00 0.00 0.00 55 1011.2
20260906020009 91 14 0.0 1.7 0.00 0.00 0.00 54 1011.1
20260906014511 91 121 0.0 1.7 0.00 0.00 0.00 54 1010.9
20260906013008 91 105 0.0 0.9 0.00 0.00 0.00 54 1010.8
20260906011508 91 106 0.0 0.9 0.00 0.00 0.00 55 1010.5
20260906010007 92 106 0.0 0.0 0.00 0.00 0.00 53 1010.4
20260906004506 94 106 0.0 0.9 0.00 0.00 0.00 52 1010.2
20260906003006 94 50 0.0 0.9 0.00 0.00 0.00 51 1010.3
20260906001507 95 153 0.0 0.9 0.00 0.00 0.00 49 1010.2
20260906000005 95 185 0.0 3.5 0.00 0.00 0.00 47 1010.1
20260905234506 96 32 0.0 2.6 0.00 0.00 0.00 48 1010.2
20260905233004 96 294 0.0 0.9 0.00 0.00 0.00 47 1010.2
20260905231504 96 18 0.0 1.7 0.00 0.00 0.00 46 1010.4
20260905230003 97 356 0.0 5.2 0.00 0.00 0.00 45 1010.3
20260905224503 98 311 1.7 4.3 0.00 0.00 0.00 42 1010.2
20260905223001 99 307 3.5 7.0 0.00 0.00 0.00 40 1010.0
20260905221501 99 294 1.7 5.2 0.00 0.00 0.00 40 1010.2
20260905220101 100 301 3.5 7.0 0.00 0.00 0.00 39 1010.1
20260905214607 100 300 3.5 8.7 0.00 0.00 0.00 39 1010.1
20260905213104 101 326 2.6 7.8 0.00 0.00 0.00 40 1010.1
20260905211558 101 278 2.6 6.1 0.00 0.00 0.00 39 1010.2
20260905210106 101 345 2.6 7.8 0.00 0.00 0.00 40 1010.4
20260905204554 100 299 2.6 6.1 0.00 0.00 0.00 40 1010.4
20260905203058 100 354 3.5 7.8 0.00 0.00 0.00 42 1010.5
20260905201552 101 299 1.7 9.6 0.00 0.00 0.00 39 1010.6
20260905194548 102 299 2.6 4.3 0.00 0.00 0.00 38 1011.0
20260905193046 102 36 0.9 7.0 0.00 0.00 0.00 38 1011.3
20260905191546 101 306 0.9 7.0 0.00 0.00 0.00 41 1011.3
20260905190050 102 321 1.7 4.3 0.00 0.00 0.00 39 1011.5
20260905184540 101 60 0.9 5.2 0.00 0.00 0.00 40 1011.7
20260905183038 100 323 0.9 6.1 0.00 0.00 0.00 43 1011.9
20260905181538 100 336 1.7 5.2 0.00 0.00 0.00 43 1012.0
20260905180051 100 319 0.0 7.0 0.00 0.00 0.00 46 1012.0
20260905174535 100 255 0.9 3.5 0.00 0.00 0.00 46 1012.1
20260905173033 98 318 0.0 5.2 0.00 0.00 0.00 48 1012.3
20260905171547 98 271 0.0 3.5 0.00 0.00 0.00 49 1012.4
20260905170028 97 302 0.9 5.2 0.00 0.00 0.00 49 1012.6
20260905164524 96 305 1.7 5.2 0.00 0.00 0.00 50 1012.8
20260905163020 96 295 2.6 6.1 0.00 0.00 0.00 50 1012.9
20260905161524 95 302 1.7 4.3 0.00 0.00 0.00 49 1013.0
20260905160022 95 300 0.9 4.3 0.00 0.00 0.00 52 1013.0
20260905154514 94 297 0.9 6.1 0.00 0.00 0.00 52 1013.0
20260905153013 94 318 1.7 3.5 0.00 0.00 0.00 52 1013.0
20260905151510 94 245 0.0 3.5 0.00 0.00 0.00 55 1013.0
20260905150006 92 299 0.0 2.6 0.00 0.00 0.00 57 1013.1
20260905144504 91 309 0.0 1.7 0.00 0.00 0.00 58 1013.0
20260905143003 91 222 0.0 0.9 0.00 0.00 0.00 59 1012.9
20260905141558 89 287 0.0 0.9 0.00 0.00 0.00 62 1012.9